QPF
0.00 0.00 0.00 0.00 0.00 0.01 0.00 0.00 0.04 0.13 0.15 0.06 0.03 0.02 0.01 0.00 0.00 0.00 0.00 0.00 0.00 0.00
0.00 0.00 0.00 0.00 0.00 0.00 0.00 0.01 0.01 0.04 0.07 0.06 0.03 0.03 0.03 0.01 0.00 0.00 0.00 0.00 0.00 0.00
0.00 0.00 0.00 0.00 0.00 0.00 0.00 0.00 0.01 0.02 0.03 0.04 0.08 0.05 0.03 0.04 0.01 0.00 0.00 0.00 0.00 0.00
0.00 0.00 0.00 0.00 0.00 0.00 0.00 0.00 0.00 0.01 0.01 0.01 0.02 0.04 0.03 0.02 0.05 0.04 0.01 0.00 0.00 0.00
0.00 0.00 0.01 0.01 0.00 0.00 0.00 0.00 0.00 0.00 0.00 0.00 0.00 0.02 0.02 0.01 0.03 0.02 0.03 0.01 0.00 0.00
0.00 0.00 0.00 0.00 0.01 0.01 0.01 0.00 0.00 0.00 0.00 0.00 0.00 0.00 0.00 0.00 0.00 0.00 0.01 0.02 0.02 0.01
0.00 0.00 0.00 0.00 0.00 0.00 0.01 0.01 0.00 0.00 0.00 0.00 0.00 0.00 0.01 0.01 0.01 0.00 0.00 0.00 0.01 0.01
0.01 0.01 0.00 0.00 0.00 0.00 0.00 0.00 0.00 0.00 0.01 0.01 0.01 0.00 0.00 0.00 0.00 0.00 0.00 0.00 0.00 0.00
0.01 0.01 0.01 0.01 0.00 0.00 0.01 0.01 0.00 0.01 0.00 0.01 0.02 0.02 0.01 0.01 0.00 0.00 0.00 0.00 0.00 0.00
0.00 0.00 0.00 0.00 0.00 0.01 0.01 0.01 0.01 0.01 0.02 0.03 0.03 0.06 0.02 0.02 0.01 0.01 0.03 0.03 0.03 0.03
0.01 0.00 0.00 0.00 0.00 0.00 0.00 0.00 0.00 0.00 0.00 0.00 0.01 0.01 0.00 0.00 0.00 0.00 0.01 0.02 0.02 0.02
0.00 0.00 0.00 0.00 0.00 0.00 0.00 0.00 0.00 0.00 0.00 0.00 0.00 0.00 0.00 0.00 0.00 0.00 0.00 0.01 0.00 0.00
0.00 0.00 0.00 0.00 0.00 0.00 0.00 0.00 0.00 0.00 0.00 0.00 0.00 0.00 0.00 0.00 0.00 0.00 0.00 0.00 0.00 0.00
0.00 0.00 0.00 0.00 0.00 0.00 0.00 0.00 0.00 0.00 0.00 0.00 0.00 0.00 0.00 0.00 0.00 0.00 0.00 0.00 0.00 0.00
MSLP
1007.27 1008.08 1008.53 1008.77 1008.93 1009.59 1010.30 1010.75 1011.22 1011.83 1012.21 1013.04 1013.48 1013.87 1014.41 1014.91 1015.24 1015.48 1015.78 1015.96 1016.24 1016.35
1007.13 1007.72 1008.25 1008.77 1009.21 1009.57 1009.91 1010.35 1011.03 1011.52 1011.74 1012.41 1012.95 1013.59 1014.09 1014.64 1015.05 1015.43 1015.86 1016.07 1016.13 1016.22
1006.89 1007.56 1008.24 1008.77 1009.04 1008.97 1009.47 1010.02 1010.44 1011.11 1011.58 1011.84 1012.56 1012.96 1013.69 1014.22 1014.77 1015.28 1015.60 1015.80 1016.09 1016.09
1006.74 1007.42 1008.16 1008.53 1008.96 1009.23 1009.57 1009.92 1010.28 1010.57 1011.20 1011.74 1012.22 1012.70 1013.19 1013.62 1014.18 1014.61 1015.07 1015.48 1015.68 1015.76
1007.00 1007.24 1007.80 1008.34 1008.90 1009.35 1009.59 1009.92 1010.17 1010.50 1010.92 1011.44 1012.03 1012.44 1012.77 1013.28 1013.67 1014.05 1014.48 1014.71 1015.13 1015.10
1007.67 1007.94 1008.19 1008.31 1008.44 1008.86 1009.31 1009.86 1010.22 1010.46 1010.80 1011.22 1011.70 1012.07 1012.34 1012.62 1012.95 1013.30 1013.65 1013.91 1014.20 1014.33
1008.16 1008.34 1008.45 1008.76 1008.89 1008.98 1009.17 1009.41 1009.91 1010.30 1010.66 1011.08 1011.43 1011.66 1011.80 1011.83 1012.00 1012.46 1012.79 1012.93 1013.29 1013.37
1009.38 1009.42 1009.51 1009.61 1009.72 1009.62 1009.59 1009.64 1009.58 1009.93 1010.39 1010.87 1011.90 1013.23 1012.79 1011.79 1012.01 1012.27 1012.23 1012.33 1012.40 1012.40
1010.22 1010.38 1010.67 1010.77 1010.82 1010.82 1010.95 1011.14 1011.30 1011.66 1012.07 1012.69 1013.83 1014.23 1013.85 1013.52 1012.73 1012.39 1012.16 1012.15 1012.04 1012.07
1011.08 1010.97 1011.52 1011.72 1011.76 1011.83 1012.19 1012.57 1012.91 1013.26 1013.63 1014.35 1014.88 1014.83 1014.37 1013.97 1013.45 1013.07 1012.86 1012.81 1012.85 1012.57
1012.01 1011.47 1012.20 1012.45 1012.60 1012.72 1013.27 1013.78 1014.30 1014.64 1014.87 1015.22 1015.78 1015.58 1014.89 1014.09 1013.60 1013.47 1014.24 1014.68 1014.67 1014.47
1011.95 1012.87 1013.83 1013.87 1013.91 1013.87 1014.02 1014.59 1015.12 1015.60 1015.84 1015.84 1016.21 1015.93 1015.11 1013.83 1013.59 1014.63 1015.34 1015.82 1015.93 1015.63
1014.62 1014.41 1014.66 1015.24 1015.11 1015.25 1015.23 1015.47 1015.87 1016.35 1016.66 1016.98 1016.81 1016.59 1015.96 1015.12 1015.26 1015.55 1016.11 1016.74 1016.88 1016.75
1015.78 1015.42 1015.87 1016.10 1016.26 1016.28 1016.05 1016.08 1016.42 1016.94 1017.58 1017.67 1017.97 1017.68 1017.30 1016.59 1016.24 1016.88 1017.16 1017.40 1017.58 1017.67
Thickness
5632 5625 5622 5622 5620 5614 5607 5604 5601 5598 5598 5594 5595 5595 5595 5594 5594 5594 5594 5594 5593 5593
5629 5625 5621 5618 5616 5613 5611 5607 5601 5597 5599 5597 5595 5593 5592 5591 5590 5589 5587 5587 5588 5589
5627 5623 5618 5615 5613 5615 5613 5609 5606 5601 5600 5600 5596 5595 5591 5589 5587 5585 5584 5584 5582 5582
5625 5620 5615 5613 5611 5610 5608 5606 5604 5603 5598 5595 5594 5593 5592 5590 5587 5584 5582 5580 5578 5578
5619 5619 5614 5612 5609 5606 5605 5603 5601 5600 5598 5596 5593 5592 5591 5588 5585 5584 5581 5581 5578 5579
5611 5609 5608 5609 5609 5607 5605 5601 5599 5599 5597 5595 5592 5591 5590 5589 5587 5585 5583 5582 5581 5582
5603 5604 5602 5601 5602 5602 5602 5602 5599 5598 5596 5594 5592 5592 5592 5593 5591 5588 5585 5584 5582 5582
5584 5587 5588 5589 5589 5591 5594 5596 5599 5597 5595 5592 5585 5573 5577 5589 5587 5584 5584 5584 5584 5584
5572 5572 5572 5573 5574 5576 5576 5577 5577 5575 5572 5569 5561 5558 5561 5564 5574 5577 5579 5579 5578 5578
5559 5561 5558 5557 5559 5561 5561 5559 5557 5556 5554 5548 5546 5548 5551 5553 5558 5561 5562 5562 5563 5566
5543 5551 5547 5546 5546 5547 5543 5541 5538 5537 5537 5535 5532 5534 5539 5544 5549 5549 5542 5537 5537 5539
5536 5529 5523 5525 5527 5529 5530 5526 5523 5521 5520 5521 5518 5521 5526 5537 5540 5529 5522 5517 5515 5517
5503 5505 5506 5503 5507 5509 5510 5509 5507 5504 5502 5500 5502 5503 5508 5515 5513 5508 5503 5497 5495 5494
5484 5487 5487 5485 5486 5488 5492 5493 5491 5487 5483 5483 5481 5483 5485 5490 5492 5484 5480 5478 5475 5473